"Pseudo-MPEC" for C0GNH65
Created 2023 Mar 19 12:22:03 UT using Find_Orb
Click here for an explanation of pseudo-MPECs
Astrometry: C0GNH65* C2023 03 13\=nPbMr:mp+QZ':pW;Mxg(?Z^[mku2\2)*bFWZ`$QFUe'J5^?6,E
V00 C0GNH65 C2023 03 13VA]kh(gUdy8o;8uy+y:
Astrometrykd[?)w/jv?eY1-bR+UOFmVu
V00 C0GNH65 C2023 03 13F;yUG@\y#Zbm0(2j9@,k\fvkv9Lq_gM_Bu?WrtkZAbTFUN,FdrvV
V00 C0GNH65 C2023 03 13hro:j.'qm$lft$^nI?6K'DK]L1]6*4lr,;3PJnHqLn8GLvovo_!Q
V00 C0GNH65 mC2023 03 13)'hU8%FB98o.\*2*R)W!A$'rM#g3Yrp``RfLu%D%Ld8dBAq=yyiM
V00 C0GNH65 mC2023 03 13V1:i)0)jj\0Wi5UI;53Ty)PA!mtT]!dn;TQ]up?+gPu_x=t1qN:G
V00 C0GNH65 mC2023 03 13IooC#,EBT:v+@3[7-f$7;w9wK$IysJHhsFF%kh3_sQT=8@u*6U')
V00 C0GNH65 mC2023 03 13,,bU,[Z.ISTI3y7F_U??as6Sn1]^@gLKO\1d?hoN7\
redacted;'
V00 C0GNH65 mC2023 03 14O)f^+EvuSD,6(LUISS5k=Q0+8C]@L@`0BF0rAcNSDT.n-h!BYMD$
V00 C0GNH65 mC2023 03 14N6GeVM+=7'=G^df;Ac(od%(\R`Z=ayM4^DLfaM@Fl\2dQ-j:69$o
V00 C0GNH65 mC2023 03 14vaG!\sc[!QtEW`a+aQs;n[+.KEg@u(Aw)#KF9x3KUMf:-MkI!,q\
V00 C0GNH65 mC2023 03 148Z-7GM2)n
clickcfLh3?n1,tfY`'f4ri5Y;KquXbv
here_N%S7EY
V00 C0GNH65 mC2023 03 19XxNC*H0=/k]w=Mfvh7G=Ic9.7r;)=ucPM7sX`)uIN3FF`fv
for(W
V00 C0GNH65 mC2023 03 19xyZa8hSd]\[2E1`6+rvhGE=ZE=te9VB7UVSGD,e\hGngX.#cZT,\
V00 C0GNH65 mC2023 03 19S#pS@EY!;K1
explanationq$2p0x,RET?WcvuwP'3***]JOU]*p.
V00 Station data: (V00) Kitt Peak-Bok (N31.963125 W111.600190) US/Arizona. Observers T. A. Pruyne, B. M. Africano, E. J. Christensen, G. A. Farneth, D. C. Fuls, A. R. Gibbs, A. D. Grauer, H. Gröller, J. A. Johnson, R. A. Kowalski, S. M. Larson, G. J. Leonard, D. Rankin, R. L. Seaman, F. C. Shelly, K. W. Wierzchoś. 2.25-m reflector + CCD. Orbital elements: C0GNH65 Perihelion 2023 Mar 26.62570 +/- 0.0245 TT = 15:01:00 (JD 2460030.12570) Epoch 2023 Mar 19.0 TT = JDT 2460022.5 Earth MOID: 0.0658 Ma: 0.0545 M 356.13660685 +/- 0.008 (J2000 ecliptic) AutoNEOCP n 0.50662805 +/- 0.00277 Peri. 69.13063 +/- 0.053 a 1.55839144 +/- 0.00568 Node 112.97321 +/- 0.044 e 0.3345152 +/- 0.00226 Incl. 3.14032 +/- 0.018 P 1.95/710.57d H 25.58 G 0.15 U 8.8 q 1.03708579 +/- 0.000257 Q 2.07969710 +/- 0.0111 From 15 observations 2023 Mar. 13-19; mean residual 0".20
Residuals in arcseconds: 230313 V00 .07+ .30- 230313 V00 .41+ .37+ 230314 V00 .17- .08- 230313 V00 .07- .10- 230313 V00 .07- .14+ 230314 V00 .01- .21+ 230313 V00 .06+ .14- 230313 V00 .05+ .38- 230319 V00 .17- .16- 230313 V00 .02+ .35+ 230314 V00 .12- .22- 230319 V00 .13+ .08+ 230313 V00 .41- .01+ 230314 V00 .26+ .14+ 230319 V00 .04+ .07+ Ephemerides (geocentric): Date (UTC) HH RA Dec delta r elong mag " sig PA ---- -------- ------------ ------------ ------ ------ ----- --- -------- 2023 03 19 12 08 38 51.155 +51 13 54.23 .09550 1.0394 115.0 22.8 .243 25 2023 03 19 13 08 39 07.706 +51 15 08.44 .09545 1.0394 115.0 22.8 .250 25 2023 03 19 14 08 39 24.300 +51 16 22.51 .09540 1.0394 115.0 22.8 .257 26 2023 03 19 15 08 39 40.938 +51 17 36.44 .09535 1.0393 114.9 22.8 .264 27 2023 03 19 16 08 39 57.619 +51 18 50.23 .09530 1.0393 114.9 22.8 .271 28 2023 03 19 17 08 40 14.344 +51 20 03.87 .09525 1.0393 114.9 22.8 .278 28 2023 03 19 18 08 40 31.112 +51 21 17.37 .09520 1.0393 114.9 22.8 .285 29 2023 03 19 19 08 40 47.924 +51 22 30.72 .09515 1.0392 114.9 22.8 .292 30 2023 03 19 20 08 41 04.780 +51 23 43.93 .09510 1.0392 114.9 22.8 .300 30 2023 03 19 21 08 41 21.680 +51 24 56.99 .09505 1.0392 114.9 22.8 .307 31 2023 03 19 22 08 41 38.624 +51 26 09.90 .09500 1.0392 114.9 22.8 .315 31 2023 03 19 23 08 41 55.612 +51 27 22.65 .09495 1.0391 114.9 22.8 .323 32 2023 03 20 00 08 42 12.644 +51 28 35.26 .09490 1.0391 114.9 22.8 .331 32 2023 03 20 01 08 42 29.720 +51 29 47.72 .09485 1.0391 114.9 22.8 .339 33 2023 03 20 02 08 42 46.840 +51 31 00.02 .09480 1.0391 114.8 22.8 .347 33 2023 03 20 03 08 43 04.004 +51 32 12.17 .09475 1.0390 114.8 22.8 .355 34 2023 03 20 04 08 43 21.212 +51 33 24.16 .09470 1.0390 114.8 22.8 .363 34 2023 03 20 05 08 43 38.465 +51 34 36.00 .09465 1.0390 114.8 22.8 .371 35 2023 03 20 06 08 43 55.762 +51 35 47.67 .09460 1.0390 114.8 22.8 .380 35 2023 03 20 07 08 44 13.104 +51 36 59.20 .09455 1.0389 114.8 22.8 .388 35 2023 03 20 08 08 44 30.490 +51 38 10.56 .09450 1.0389 114.8 22.8 .397 36 2023 03 20 09 08 44 47.921 +51 39 21.76 .09445 1.0389 114.8 22.8 .405 36 2023 03 20 10 08 45 05.396 +51 40 32.79 .09440 1.0389 114.8 22.8 .414 36 2023 03 20 11 08 45 22.916 +51 41 43.67 .09435 1.0388 114.8 22.8 .423 37 2023 03 20 12 08 45 40.480 +51 42 54.38 .09430 1.0388 114.8 22.8 .432 37 2023 03 20 13 08 45 58.090 +51 44 04.93 .09426 1.0388 114.8 22.8 .441 37 2023 03 20 14 08 46 15.744 +51 45 15.31 .09421 1.0388 114.8 22.7 .450 38 2023 03 20 15 08 46 33.443 +51 46 25.52 .09416 1.0387 114.7 22.7 .459 38 2023 03 20 16 08 46 51.187 +51 47 35.57 .09411 1.0387 114.7 22.7 .468 38 2023 03 20 17 08 47 08.975 +51 48 45.44 .09406 1.0387 114.7 22.7 .478 39 2023 03 20 18 08 47 26.809 +51 49 55.15 .09401 1.0387 114.7 22.7 .487 39 2023 03 20 19 08 47 44.688 +51 51 04.68 .09396 1.0386 114.7 22.7 .497 39 2023 03 20 20 08 48 02.612 +51 52 14.04 .09391 1.0386 114.7 22.7 .506 39 2023 03 20 21 08 48 20.581 +51 53 23.23 .09387 1.0386 114.7 22.7 .516 40 2023 03 20 22 08 48 38.595 +51 54 32.24 .09382 1.0386 114.7 22.7 .525 40 2023 03 20 23 08 48 56.655 +51 55 41.07 .09377 1.0386 114.7 22.7 .535 40 2023 03 21 00 08 49 14.759 +51 56 49.73 .09372 1.0385 114.7 22.7 .545 40 2023 03 21 01 08 49 32.909 +51 57 58.21 .09367 1.0385 114.7 22.7 .555 40 2023 03 21 02 08 49 51.105 +51 59 06.51 .09362 1.0385 114.7 22.7 .565 41 2023 03 21 03 08 50 09.345 +52 00 14.63 .09358 1.0385 114.7 22.7 .575 41 2023 03 21 04 08 50 27.632 +52 01 22.57 .09353 1.0385 114.7 22.7 .585 41 2023 03 21 05 08 50 45.963 +52 02 30.32 .09348 1.0384 114.7 22.7 .595 41 2023 03 21 06 08 51 04.341 +52 03 37.89 .09343 1.0384 114.6 22.7 .606 41 2023 03 21 07 08 51 22.763 +52 04 45.28 .09338 1.0384 114.6 22.7 .616 42 2023 03 21 08 08 51 41.232 +52 05 52.47 .09334 1.0384 114.6 22.7 .627 42 2023 03 21 09 08 51 59.746 +52 06 59.48 .09329 1.0384 114.6 22.7 .637 42 2023 03 21 10 08 52 18.306 +52 08 06.30 .09324 1.0383 114.6 22.7 .648 42 2023 03 21 11 08 52 36.911 +52 09 12.94 .09319 1.0383 114.6 22.7 .658 42